Regional Weather Roundup
Issued by NWS

Home | Current Version | Previous Version | Text Only | Print | Product List | Glossary On
Versions: 1 2 3 4 5 6 7 8 9 10 11 12 13 14 15 16 17 18 19 20 21 22 23 24 25 26 27 28 29 30 31 32 33 34 35 36 37 38 39 40 41 42 43 44 45 46 47 48 49 50
000
ASUS43 KMKX 310121
RWRWI

WISCONSIN REGIONAL WEATHER ROUNDUP
NATIONAL WEATHER SERVICE MILWAUKEE/SULLIVAN WI
800 PM CDT THU JUL 30 2015

NOTE: "FAIR" INDICATES FEW OR NO CLOUDS BELOW 12,000 FEET WITH NO
SIGNIFICANT WEATHER AND/OR OBSTRUCTIONS TO VISIBILITY.

WIZ001-002-006>008-014>016-023>028-310200-
NORTHWEST WISCONSIN

CITY           SKY/WX    TMP DP  RH WIND       PRES   REMARKS
SUPERIOR ARPT  CLEAR     76  56  49 W9        29.91S
ASHLAND        CLEAR     76  55  48 W8        29.90S
HAYWARD        PTCLDY    77  54  44 W9G16     29.96R
SIREN          CLEAR     76  55  48 W6        29.97S
CUMBERLAND     CLEAR     73  54  49 W9        29.99S
RICE LAKE      CLEAR     75  55  50 W8        30.00S
CHETEK         CLEAR     76  57  51 W3        29.99R
LADYSMITH      CLEAR     76  56  48 W6        29.99S
EAU CLAIRE     CLEAR     77  57  50 W7        29.98S
MENOMONIE      CLEAR     79  55  42 W8        30.00R HX  80
NEW RICHMOND   CLEAR     76  55  46 W8        30.00S
OSCEOLA        CLEAR     77  57  50 W9        30.01F
$$

WIZ003>005-009-010-017-018-310200-
NORTH CENTRAL WISCONSIN

CITY           SKY/WX    TMP DP  RH WIND       PRES   REMARKS
MANITOWISH WTR CLEAR     68  64  86 CALM      29.94S
ARBOR VITAE    CLEAR     73  59  60 W10       29.94S
WOODRUFF       CLEAR     73  59  60 W10       29.94S
RHINELANDER    CLEAR     71  59  65 SW7       29.96F
EAGLE RIVER    CLEAR     66  59  79 CALM      29.94S
LAND O LAKES   PTCLDY    68  58  69 SW5       29.95S
PHILLIPS       CLEAR     73  57  55 W5        29.96S
TOMAHAWK       CLEAR     66  63  91 CALM      29.97S
MEDFORD        CLEAR     73  57  57 W7        29.98F
MERRILL        NOT AVBL
$$

WIZ029-030-035-036-043>047-310200-
CENTRAL WISCONSIN

CITY           SKY/WX    TMP DP  RH WIND       PRES   REMARKS
WAUSAU         CLEAR     72  56  57 CALM      29.95F
MOSINEE        PTCLDY    75  55  50 W10       29.99R
MARSHFIELD     CLEAR     75  55  49 W8        29.99S
STEVENS POINT  CLEAR     76  55  48 W6        29.98S
WAUPACA        PTCLDY    81  53  37 W10       29.96S HX  80
WAUTOMA        CLEAR     81  53  37 W9        29.98R HX  80
WISC RAPIDS    PTCLDY    78  53  41 W7        29.99S
CAMP DOUGLAS   CLEAR     75  60  61 W9        29.99S
$$

WIZ011>013-019>022-031-037>040-048>050-310200-
NORTHEAST WISCONSIN

CITY           SKY/WX    TMP DP  RH WIND       PRES   REMARKS
ANTIGO         CLEAR     67  61  81 SW3       29.97F
SHAWANO        CLOUDY    75  58  55 W5        29.94F
OCONTO         PTCLDY    72  59  64 CALM      29.92S
STURGEON BAY   PTCLDY    68  59  73 W3        29.95S
GREEN BAY      MOCLDY    74  57  55 W5        29.94R
MANITOWOC      MOCLDY    78  54  43 MISG      29.94R
APPLETON       PTCLDY    75  52  43 VRB3      29.96R
CLINTONVILLE   MOCLDY    73  55  53 NW6       29.95S
OSHKOSH        CLEAR     78  54  43 W7        29.95S
$$

WIZ032>034-041-042-053>061-310200-
SOUTHWEST WISCONSIN

CITY           SKY/WX    TMP DP  RH WIND       PRES   REMARKS
LA CROSSE      CLEAR     80  58  46 W9        30.00S HX  80
SPARTA         CLEAR     78  55  43 W6        30.01S
VIROQUA        CLEAR     75  57  53 W6        30.04S
BOSCOBEL       CLEAR     80  57  45 W3        30.02S HX  80
PRAIRIE DU CHI CLEAR     80  54  40 W7        30.02S HX  80
PLATTEVILLE    CLEAR     77  59  54 W6        30.04S
$$

WIZ056-057-062-063-064-067-068-310200-
SOUTH CENTRAL WISCONSIN

CITY           SKY/WX    TMP DP  RH WIND       PRES   REMARKS
REEDSBURG      CLEAR     78  56  46 W6        30.00S
BARABOO/DELLS  CLEAR     79  49  35 W7        30.00S
LONE ROCK      CLEAR     79  55  43 W10G17    30.01S
MINERAL POINT  CLEAR     77  55  47 W7        30.04S
MADISON        PTCLDY    80  56  43 VRB3      29.99S HX  80
MIDDLETON      CLEAR     77  54  44 W7        30.01S
WATERTOWN      CLEAR     77  57  49 W6        29.98S
MONROE         CLEAR     77  57  50 W9        30.03S
JANESVILLE     CLEAR     81  55  41 W9        29.99S HX  80
$$

WIZ051-052-058>065-066-070>072-310200-
SOUTHEAST WISCONSIN

CITY           SKY/WX    TMP DP  RH WIND       PRES   REMARKS
MILWAUKEE      CLEAR     84  50  30 W10       29.97R HX  82
WAUKESHA       CLEAR     79  52  38 W10       29.99S
MILWAUKEE/TIMM CLEAR     84  48  28 W9        29.97S HX  82
RACINE         CLEAR     81  54  39 W3        29.99R HX  81
BURLINGTON     CLEAR     75  55  48 W3        29.99S
KENOSHA        CLEAR     75  58  55 W7        29.98S
FOND DU LAC    CLEAR     78  56  46 W3        29.96R
SHEBOYGAN      CLEAR     77  56  48 W6        29.94S
WEST BEND      CLEAR     79  48  34 CALM      29.97S
JUNEAU         CLEAR     76  55  48 W6        29.99R
$$

LSZ147-162-310200-
LAKE SUPERIOR

STATION/POSITION TIME  TEMP    WIND        PRES    WAVE
                       AIR SEA DIR/SP/G            HT/PER
                 (UTC) (F)     (DEG/KT/KT) (MB)    (FT/S)
W MID LAKE BUOY  0050   60 54  270/  4/  8 1010.5F   2/ 4
DEVILS ISLAND    0100   66     230/ 11/ 12 1011.3R
PORT WING        0000   75     250/ 14/ 19 1012.2S
SAXON HARBOR     0040   78                 1011.9S
$$

LMZ867-665-643>646-310200-
LAKE MICHIGAN

STATION/POSITION TIME  TEMP    WIND        PRES    WAVE
                       AIR SEA DIR/SP/G            HT/PER
                 (UTC) (F)     (DEG/KT/KT) (MB)    (FT/S)
CHAMBERS ISLAND  0000   73     300/  6/ 16 1012.9R
S GREEN BAY BUOY 0100   69 70  350/  8/ 12 1014.8R
N MID LAKE BUOY  0050   72 69  240/  8/  8 1011.3S   2/ 4
NORTHPORT PIER   0000   78     290/  7/ 10 1011.9R
SISTER BAY       0014   77     320/ 21/ 24   N/A
ALGOMA LAKESHORE 0012          340/  8/ 12   N/A
KEWAUNEE LAKESHO 0000   81     280/  6/ 11 1012.4F
SHEBOYGAN LAKESH 0100   82     280/  8/  9 1013.7R
PORT WASHINGTON  0000   86     270/  7/ 14 1014.6S
ATWATER BUOY     0100   77 63  270/ 10/ 10 1015.8R
MILWAUKEE LAKESH 0100   83     290/ 10/ 14   N/A
KENOSHA   LAKESH 0100   83     280/  7/ 13 1014.2S
$$

TC  - TEMPERATURE IN CELSIUS
VSB - VISIBILITY IN STATUTE MILES
WCI - WIND CHILL INDEX
HX  - HEAT INDEX



USA.gov is the U.S. government's official web portal to all federal, state and local government web resources and services.